Location: Bullenkuhlen
(53.7689°N, 9.7495°E)
Time: 00:25:53
(UTC+00:00)

Cosmos 1763 Rocket - Pass Details

Date: 09 April 2020
Orbit: 734 x 779 km, 74.0° (Epoch: 03 June)

Event Time Altitude Azimuth Distance (km) Brightness Sun altitude
Rises 19:40:18 0° 334° (NNW) 3,237 7.8 -12.7°
Reaches altitude 10° 19:42:43 10° 337° (NNW) 2,300 6.9 -13.0°
Maximum altitude 19:47:55 69° 61° (ENE) 805 3.5 -13.6°
Enters shadow 19:51:28 20° 141° (SE) 1,676 4.7 -14.0°
